Voltar ao catálogo

ARIANE 5 R/B

AtivoGTO
NORAD 39036·ROCKET BODY·🇫🇷 France

Lançado Dec 19, 2012 de Guiana Space Centre

Loading…

TLE

EnvelhecendoSource: Space-Track

Época: Sep 14, 2026, 06:26 UTC

1 39036U 12075C   26257.26853707  .00000571  00000-0  32360-3 0  9996
2 39036   2.1390 202.3655 7107818 225.0533  48.9233  2.48504052118967

Acompanhe ARIANE 5 R/B em tempo real com AllMySat

Download on the App Store